Probability
0 0 0 0 0 0 0 0 0 0 0 0 0 0 0 0 0 0 0 0 0 0 0 0 0 0 0 0 0 0 0 0 0 0 0 0 0 0 0 0 0 0 0
0 0 0 0 0 0 0 0 0 0 0 0 0 0 0 0 0 0 0 0 0 0 0 0 0 0 0 0 0 0 0 0 0 0 0 0 0 0 0 0 0 0 0
0 0 0 0 0 0 0 0 0 0 0 0 0 0 0 0 0 0 0 0 0 0 0 0 0 0 0 0 0 0 0 0 0 0 0 0 0 0 0 0 0 0 0
0 0 0 0 0 0 0 0 0 0 0 0 0 0 0 0 0 0 0 0 0 0 0 0 0 0 0 0 0 0 0 0 0 0 0 0 0 0 0 0 0 0 0
0 0 0 0 0 0 0 0 0 0 0 0 0 0 0 0 0 0 0 0 0 0 0 0 0 0 0 0 0 0 0 0 0 0 0 0 0 0 0 0 0 0 0
0 0 0 1 1 0 0 0 0 0 0 0 0 0 0 0 0 0 0 0 0 0 0 0 0 0 0 0 0 0 0 0 0 0 0 0 0 0 0 0 0 0 0
0 0 1 2 2 1 0 0 0 0 0 0 0 0 0 0 0 0 0 0 0 0 0 0 0 0 0 0 0 0 0 0 0 0 0 0 0 0 0 0 0 0 0
1 0 1 2 3 2 1 0 0 0 0 0 0 0 0 0 0 0 0 0 0 0 0 0 0 0 0 0 0 0 0 0 0 0 0 0 0 0 0 0 0 0 0
1 0 1 2 3 2 1 0 0 0 0 0 0 0 0 0 0 0 0 0 0 0 0 0 0 0 0 0 0 0 0 0 0 0 0 0 0 0 0 0 0 0 0
1 0 1 2 1 1 0 0 0 0 0 0 0 0 0 0 0 0 0 0 0 0 0 0 0 0 0 0 0 0 0 0 0 0 0 0 0 0 0 0 0 0 0
0 0 1 1 1 0 0 0 0 0 0 0 0 0 0 0 0 0 0 0 0 0 0 0 0 0 0 0 0 0 0 0 0 0 0 0 0 0 0 0 0 0 0
1 0 0 0 0 0 0 0 0 0 0 0 0 0 0 0 0 0 0 0 0 0 0 0 0 0 0 0 0 0 0 0 0 0 0 0 0 0 0 0 0 0 0
2 1 0 0 0 0 0 0 0 0 0 0 0 0 0 0 0 0 0 0 0 0 0 0 0 0 0 0 0 0 0 0 0 0 0 0 0 0 0 0 0 0 0
2 1 0 0 0 0 0 0 0 0 0 0 0 0 0 0 0 0 0 0 0 0 0 0 0 0 0 0 0 0 0 0 0 0 0 0 0 0 0 0 0 0 0
1 0 0 0 0 0 0 0 0 0 0 0 0 0 0 0 0 0 0 0 0 0 0 0 0 0 0 0 0 0 0 0 0 0 0 0 0 0 0 0 0 0 0
0 0 0 0 0 0 0 0 0 0 0 0 0 0 0 0 0 0 0 0 0 0 0 0 0 0 0 0 0 0 0 0 0 0 0 0 0 0 0 0 0 0 0
0 0 1 1 1 0 0 0 0 0 0 0 0 0 0 0 0 0 0 0 0 0 0 0 0 0 0 0 0 0 0 0 0 0 0 0 0 0 0 0 0 0 0
0 0 1 2 1 0 0 0 0 0 0 0 0 0 0 0 0 0 0 0 0 0 0 0 0 0 0 0 0 0 0 0 0 0 0 0 0 0 0 0 0 0 0
0 0 1 2 1 0 0 0 0 0 0 0 0 0 0 0 0 0 0 0 0 0 0 0 0 0 0 0 0 0 0 0 0 0 0 0 0 0 0 0 0 0 0
0 0 1 1 1 0 0 0 0 0 0 0 0 0 0 0 0 0 0 0 0 0 0 0 0 0 0 0 0 0 0 0 0 0 0 0 0 0 0 0 0 0 0
0 0 0 0 0 0 0 0 0 0 0 0 0 0 0 0 0 0 0 0 0 0 0 0 0 0 0 0 0 0 0 0 0 0 0 0 0 0 0 0 0 0 0
0 0 0 0 0 0 0 0 0 0 0 0 0 0 0 0 0 0 0 0 0 0 0 0 0 0 0 0 0 0 0 0 0 0 0 0 0 0 0 0 0 0 0
0 0 0 0 0 0 0 0 0 0 0 0 0 0 0 0 0 0 0 0 0 0 0 0 0 0 0 0 0 0 0 0 0 0 0 0 0 0 0 0 0 0 0
0 0 0 0 0 0 0 0 0 0 0 0 0 0 0 0 0 0 0 0 0 0 0 0 0 0 0 0 0 0 0 0 0 0 0 0 0 0 0 0 0 0 0
0 0 0 1 1 0 0 0 0 0 0 0 0 0 0 0 0 0 0 0 0 0 0 0 0 0 0 0 0 0 0 0 0 0 0 0 0 0 0 0 0 0 0
0 0 1 2 2 1 0 0 0 0 0 0 0 0 0 0 0 0 0 0 0 0 0 0 0 0 0 0 0 0 0 0 0 0 0 0 0 0 0 0 0 0 0
Wind_Speed
10 13 17 15 14 13 13 12 11 11 12 12 12 12 12 12 12 12 13 13 13 14 15 15 15 15 15 15 16 16 15 15 15 15 16 16 16 16 16 16 14 9 16
14 15 17 16 15 14 13 13 12 12 12 12 12 12 12 12 12 12 12 13 13 13 14 14 14 14 14 14 14 14 13 12 12 11 12 13 15 15 15 15 14 10 15
15 16 15 16 15 14 14 13 12 12 11 11 11 11 11 11 11 11 12 12 12 12 13 13 13 13 13 13 13 13 12 11 10 10 10 6 9 14 14 14 13 14 13
15 15 14 16 16 14 14 13 13 12 11 11 11 11 11 11 11 11 11 11 12 12 12 12 12 12 12 12 12 11 10 10 10 10 7 6 7 11 12 12 12 12 12
13 13 15 17 16 15 14 14 13 12 11 11 10 10 10 10 10 10 10 11 11 11 11 11 11 11 11 11 11 10 9 9 9 7 6 6 5 10 11 11 11 11 11
13 13 15 17 16 15 14 14 13 12 11 11 10 9 9 9 9 9 9 9 9 9 10 10 10 10 10 10 9 9 9 10 7 5 5 6 5 9 10 10 10 10 11
12 14 15 17 17 15 14 14 13 12 11 11 10 10 9 9 9 8 8 8 8 8 8 9 9 9 9 8 8 8 8 11 4 4 5 5 5 9 9 9 9 9 10
12 15 14 16 16 16 15 14 14 13 12 11 10 10 9 9 8 8 8 7 7 7 7 8 8 7 7 7 7 7 7 9 6 4 5 5 7 8 8 8 8 9 9
12 14 12 11 12 14 14 14 14 13 12 11 10 10 9 8 8 8 7 7 7 6 6 6 6 6 6 6 5 5 6 9 4 2 5 4 6 7 7 8 8 8 9
10 12 13 11 10 9 9 12 13 12 12 11 10 9 9 8 8 8 8 7 6 6 5 5 4 4 3 3 2 3 6 7 2 3 3 3 6 7 7 7 7 8 8
9 9 12 12 11 11 10 12 11 11 10 10 9 10 8 5 6 5 7 7 6 5 4 3 2 1 0 1 2 4 5 2 1 3 3 5 6 6 6 6 7 7 7
10 10 10 11 11 11 10 9 7 7 7 7 6 7 5 5 5 7 9 8 6 5 4 3 3 3 3 2 3 4 2 1 1 2 3 5 5 5 5 5 6 6 7
10 9 9 10 10 10 7 8 6 5 6 7 8 8 5 4 4 5 4 4 4 5 3 4 3 3 2 1 1 1 1 1 1 2 3 4 3 3 4 4 4 5 5
10 10 9 10 9 9 8 7 6 5 5 5 6 8 5 3 4 4 4 4 4 3 3 2 2 2 1 1 1 0 0 0 1 2 2 4 2 2 3 3 3 4 4
12 12 10 10 10 9 8 6 7 6 6 6 6 6 6 4 4 4 4 4 3 3 3 2 2 1 1 1 0 0 1 1 1 2 2 3 2 1 2 2 3 3 4
13 13 12 11 11 9 8 6 6 6 6 6 6 6 7 5 4 4 3 3 3 3 3 2 2 1 1 1 1 1 1 1 1 1 3 3 3 1 1 2 2 3 4
12 13 13 12 12 11 9 8 6 5 6 5 6 7 7 5 5 4 3 3 3 3 3 2 1 1 1 1 2 1 1 1 1 1 3 3 3 3 3 3 3 4 4
11 13 14 12 12 12 10 8 5 5 6 5 6 6 7 7 6 5 4 3 3 3 3 2 2 1 2 2 1 1 1 2 3 2 2 3 3 3 4 5 5 5 6
10 12 13 12 12 12 10 8 6 6 6 6 6 6 7 7 8 6 4 4 4 3 3 3 2 2 2 2 2 2 2 2 3 3 3 4 3 3 3 5 6 6 7
10 11 12 13 12 11 9 7 5 6 6 5 6 7 8 7 8 6 5 5 5 3 3 3 3 3 2 2 2 2 3 3 3 4 4 4 4 4 4 4 4 5 8
10 11 12 13 12 10 8 8 7 7 6 5 5 7 8 8 8 7 5 6 5 5 5 5 4 4 3 2 1 2 3 5 5 4 4 3 4 5 4 4 4 3 4
11 11 12 13 12 11 9 8 6 6 5 5 5 6 8 9 9 8 8 6 6 5 6 5 4 3 3 3 3 1 2 3 4 5 4 4 4 3 5 5 4 4 4
10 11 11 12 12 11 10 7 5 4 4 4 6 6 7 8 9 8 8 7 7 6 6 6 6 6 4 3 4 4 3 4 3 3 4 4 4 4 4 4 5 6 5
9 9 10 11 11 11 11 9 10 8 8 8 6 6 7 9 9 9 9 8 7 6 6 7 6 5 5 4 3 4 4 3 2 3 3 3 5 5 5 5 5 5 5
8 9 9 10 11 11 11 11 11 9 7 5 6 8 8 8 9 9 9 8 8 6 7 7 6 6 5 5 4 3 3 3 4 3 4 3 3 4 5 5 5 5 5
8 8 8 9 10 11 12 12 12 11 9 8 9 8 8 6 6 9 9 8 8 6 7 7 7 7 6 6 5 4 4 3 4 4 6 5 5 4 5 4 5 5 5
Wind_Direction
127 136 146 142 138 133 126 121 113 107 105 102 98 93 89 85 82 79 77 75 72 70 69 67 66 65 64 63 62 61 60 61 62 62 61 59 56 56 52 49 51 46 50
131 137 145 143 141 136 130 124 117 111 108 104 100 96 93 90 86 82 79 77 74 72 70 69 67 66 65 64 63 62 60 57 55 54 59 59 56 55 54 51 50 48 48
130 137 146 145 143 139 134 129 123 117 113 108 104 100 97 94 91 85 81 78 75 73 71 71 69 68 66 64 63 61 56 47 37 35 50 58 52 51 51 49 47 46 44
133 140 146 146 145 142 139 134 130 125 121 116 111 107 102 98 94 89 85 81 79 76 74 72 70 69 66 65 63 60 51 36 25 31 47 50 45 48 47 45 44 43 41
134 139 141 149 148 146 144 140 136 132 127 122 118 113 109 104 97 92 89 85 83 80 77 74 71 68 67 66 63 55 40 20 15 33 49 53 42 44 45 42 40 39 36
135 134 143 151 151 149 148 144 140 136 133 129 124 120 114 108 102 96 92 89 87 85 81 78 75 71 67 63 59 48 27 7 21 45 52 52 36 33 40 38 36 35 35
139 134 147 154 154 153 151 149 146 142 139 136 132 127 121 115 109 103 100 96 93 89 84 79 76 71 67 61 54 41 18 355 23 55 64 57 36 33 34 34 33 32 32
136 135 148 157 156 156 155 154 152 149 146 143 139 134 128 123 120 115 110 105 98 92 85 81 76 71 65 59 49 31 8 355 6 41 71 62 40 33 32 33 32 32 31
135 137 147 156 158 159 159 158 157 156 154 151 147 142 137 135 133 128 122 114 107 99 90 83 78 72 63 56 43 17 349 338 341 18 65 55 38 30 31 34 31 29 29
139 144 153 159 160 160 161 162 160 160 159 156 150 145 145 148 147 142 132 125 119 110 100 91 83 75 67 61 37 341 322 320 325 54 63 47 36 28 30 34 30 29 29
153 156 158 162 163 164 164 162 158 161 161 156 150 153 156 166 161 153 134 138 136 133 128 120 120 133 183 222 238 278 302 285 58 74 67 47 38 29 28 30 26 25 25
168 169 164 163 163 164 164 155 164 167 163 170 167 169 187 185 154 144 144 153 159 165 165 177 205 234 236 213 232 252 278 316 54 91 82 61 39 22 17 25 24 23 22
174 174 168 165 162 163 157 160 169 169 169 186 179 178 186 163 139 137 152 160 176 186 192 202 221 231 217 171 216 237 310 12 39 79 90 75 38 9 9 20 20 19 16
174 178 173 167 163 164 161 167 168 168 172 180 177 178 176 160 159 159 167 171 180 185 178 194 215 216 209 208 219 241 10 17 100 109 114 95 47 5 359 3 7 6 7
178 178 177 171 167 167 165 170 172 173 173 172 171 180 169 159 171 165 174 167 180 167 168 199 219 206 207 218 228 288 281 250 157 130 130 131 109 356 339 343 344 343 347
178 177 176 176 171 169 172 174 176 174 169 169 165 176 172 166 170 162 174 165 174 168 177 189 207 192 207 196 232 264 281 290 221 154 152 155 163 190 277 307 314 318 322
179 175 176 178 175 173 177 180 179 174 167 167 166 176 175 170 168 161 171 169 179 179 182 191 208 186 211 222 231 238 244 268 263 212 179 167 172 189 218 263 286 292 298
176 173 175 177 177 177 178 182 180 176 171 168 166 174 179 175 169 167 171 180 182 172 175 183 191 203 223 226 233 241 228 223 245 233 202 184 179 181 205 229 254 268 280
179 173 173 172 178 179 178 179 182 179 176 172 169 174 180 180 173 170 176 182 179 176 186 189 193 195 214 227 228 237 237 228 228 229 221 203 193 186 190 216 229 245 261
180 174 171 172 178 178 175 176 181 182 180 177 175 177 177 179 177 174 176 184 181 180 192 194 199 203 205 213 242 252 241 233 228 226 225 210 198 201 204 210 214 235 244
178 176 174 173 178 177 176 179 183 187 183 181 181 179 180 181 181 179 181 185 184 188 195 195 190 203 215 197 221 281 269 240 233 224 216 211 210 208 209 215 212 214 231
178 180 177 177 178 181 181 180 180 178 181 183 182 186 186 186 185 185 185 186 187 189 196 199 191 191 207 181 175 222 295 297 267 233 217 215 219 213 217 219 219 221 217
181 182 181 179 178 179 174 167 166 165 172 183 189 192 193 191 190 188 190 187 190 189 196 199 193 190 202 208 188 179 203 245 281 269 234 219 219 224 226 221 223 225 220
184 178 178 176 175 176 172 176 177 183 190 195 188 189 193 194 194 192 191 192 194 193 195 199 196 192 189 206 216 213 210 200 222 285 279 245 229 229 229 227 227 226 221
176 173 175 173 176 176 178 182 186 193 195 188 184 187 192 196 195 193 192 193 197 197 197 197 197 198 197 201 200 200 223 238 226 227 266 268 258 242 231 229 225 225 223
169 168 172 174 178 177 181 186 191 194 191 189 192 191 192 194 195 194 192 193 196 196 197 198 199 201 204 206 206 197 190 198 213 215 242 256 257 249 238 234 229 228 226